AirNav   Air Wisconsin Up To $57,000 Bonus
 
 923 users online  

58T Heritage Creek Airstrip
Decatur, Texas, USA

GOING TO DECATUR?


FAA INFORMATION EFFECTIVE 02 DECEMBER 2021

Location

FAA Identifier: 58T
Lat/Long: 33-09-57.7000N 097-28-47.6000W
33-09.961667N 097-28.793333W
33.1660278,-97.4798889
(estimated)
Elevation: 883 ft. / 269 m (estimated)
Variation: 07E (1985)
From city: 9 miles SE of DECATUR, TX
Time zone: UTC -6 (UTC -5 during Daylight Saving Time)
Zip code: 76078

Airport Operations

Airport use: Open to the public
Activation date: 11/1990
Control tower: no
ARTCC: FORT WORTH CENTER
FSS: FORT WORTH FLIGHT SERVICE STATION
NOTAMs facility: FTW (NOTAM-D service available)
Attendance: UNATNDD
Wind indicator: lighted
Segmented circle: no
Lights: ACTVT LIRL RY 13/31 - CTAF.

Airport Communications

CTAF: 122.9
WX AWOS-3 at LUD (7 nm NW): 118.225 (940-627-2365)
WX ASOS at AFW (13 nm SE): PHONE 817-491-6188
WX ASOS at DTO (14 nm E): 119.325 (940-383-8457)
WX AWOS-3 at XBP (18 nm W): 119.225 (940-683-8027)

Nearby radio navigation aids

VOR radial/distance  VOR name  Freq  Var
FUZr312/22.4RANGER VORTAC115.7006E
UKWr136/28.0BOWIE VORTAC117.1506E
TTTr303/28.4MAVERICK VOR/DME113.1006E
CVEr294/33.4COWBOY VOR/DME116.2006E
MQPr036/37.1MILLSAP VORTAC117.7009E

Airport Services

Airframe service: MAJOR
Powerplant service: MAJOR

Runway Information

Runway 13/31

Dimensions: 3000 x 60 ft. / 914 x 18 m
Surface: turf, in good condition
Runway edge lights: low intensity
RUNWAY 13  RUNWAY 31
Latitude: 33-10.125432N33-09.796962N
Longitude: 097-29.012758W097-28.572758W
Elevation: 867.0 ft.842.0 ft.
Traffic pattern: leftright
RIGHT TRAFFIC FOR FIXED WING ACFT ONLY; REMAIN EAST OF THE RY.
Runway heading: 125 magnetic, 132 true305 magnetic, 312 true
Obstructions: 5 ft. fence, 168 ft. from runway, 40 ft. right of centerline, 33:1 slope to clear40 ft. tree, 740 ft. from runway, 70 ft. right of centerline, 18:1 slope to clear

Airport Ownership and Management from official FAA records

Ownership: Privately-owned
Owner: HERITAGE CREEK PILOTS ASSOC
894 HERITAGE CREEK DRIVE
RHOME, TX 76078
Phone 940-627-5938
Manager: BRYAN FAIR, PRESIDENT
186 RED BARON DR
RHOME, TX 76078
Phone (817) 988-9745

Airport Operational Statistics

Aircraft based on the field: 33
Single engine airplanes: 26
Helicopters: 2
Gliders airplanes: 2
Ultralights: 3
    
Aircraft operations: avg 42/week *
98% local general aviation
2% transient general aviation
* for 12-month period ending 31 December 2018

Additional Remarks

BIRD ACTIVITY SOUTH OF ARPT.
ALL ACFT MONITOR CTAF DUE TO THE CLOSE PROXIMITY TO RHOME MEADOWS ARPT.
PARACHUTE ACTIVITY INVOF ARPT.
RCO CTL MODEL ACFT OPS ON ARPT.
DEER & BIRDS ON AND INVOF ARPT.
FOR CD CTC REGIONAL APCH AT 972-615-2799.
TWO LIGHTS EACH SIDE OF CNTRLN MARK RWY ENDS.

Instrument Procedures

There are no published instrument procedures at 58T.

Some nearby airports with instrument procedures:

KLUD - Decatur Municipal Airport (7 nm NW)
4T2 - Kenneth Copeland Airport (11 nm S)
KAFW - Fort Worth Alliance Airport (13 nm SE)
KDTO - Denton Enterprise Airport (14 nm E)
KXBP - Bridgeport Municipal Airport (18 nm W)
 
Loc | Ops | Rwys | IFR | FBO | Links
Com | Nav | Svcs | Stats | Notes

City of Fort Worth
 
Area around 58T (Heritage Creek Airstrip)
 
Road maps at: MapQuest Bing Google
 
Aerial photo
WARNING: Photo may not be current or correct
Aerial photo of 58T (Heritage Creek Airstrip)
Photo by Chris Hettenbach

Do you have a better or more recent aerial photo of Heritage Creek Airstrip that you would like to share? If so, please send us your photo.

 
Sectional chart

 
Airport distance calculator
Flying to Heritage Creek Airstrip? Find the distance to fly.

From to 58T

Sunrise and sunset
Times for 03-Dec-2021
 Local
(UTC-6)
 Zulu
(UTC)
Morning civil twilight06:5112:51
Sunrise07:1813:18
Sunset17:2223:22
Evening civil twilight17:4923:49

Current date and time
Zulu (UTC)  04-Dec-2021 00:18:00
Local (UTC-6)  03-Dec-2021 18:18:00
 
METAR
KLUD 
7nm NW 
118.22 940-927-2365
032355Z AUTO 13005KT 10SM CLR 20/16 A2993 RMK AO2 T02030157 10230 20175
KDTO 
14nm E 
032353Z 12004KT 10SM CLR 21/17 A2993 RMK AO2 SLP130 T02060167 10233 20200 55001
KAFW 
15nm SE 
032353Z 14005KT 10SM BKN200 BKN250 20/17 A2992 RMK AO2 SLP127 60000 T02000172 10228 20200 55001
KXBP 
18nm W 
032355Z AUTO 14004KT 10SM CLR 21/15 A2994 RMK AO2 T02100152 10257 20210
TAF
KAFW 
15nm SE 
032059Z 0321/0418 19011KT P6SM BKN100 BKN250 FM041300 17005KT P6SM BKN015 TEMPO 0413/0415 4SM BR FM041600 19007KT P6SM SCT025
NOTAMs
Click for the latest NOTAMs
NOTAMs are issued by the DoD/FAA and will open in a separate window not controlled by AirNav.

 

 
 

Would you like to see your business listed on this page?

 If your business provides an interesting product or service to pilots, flight crews, aircraft, or users of the Heritage Creek Airstrip, you should consider listing it here.  To start the listing process, click on the button below
 
Add a business
 

Other Pages about Heritage Creek Airstrip

Update a link
 
Copyright © AirNav, LLC. All rights reserved. Privacy Policy  Contact